Location: San Vito
(41.8833°N, 12.9833°E)
Time: 04:56:10
(UTC+00:00)

Okean O Rocket - Pass Details

Date: 17 November 2019
Orbit: 622 x 645 km, 98.2° (Epoch: 12 December)

Event Time Altitude Azimuth Distance (km) Brightness Sun altitude
Rises 04:04:19 0° 23° (NNE) 2,912 5.2 -21.4°
Reaches altitude 10° 04:06:43 10° 33° (NNE) 2,000 4.5 -20.9°
Maximum altitude 04:10:37 32° 97° (E) 1,070 3.4 -20.2°
Drops below altitude 10° 04:14:30 10° 161° (SSE) 1,988 4.5 -19.5°
Sets 04:16:52 0° 171° (S) 2,892 5.2 -19.1°
